Location: Deerlick Astronomy Village
(33.5614°N, 82.7631°W)
Time: 18:21:53
(UTC-04:00)

Iridium 66 - Visible Passes

Search period start: 26 June 2017 00:00
Search period end: 06 July 2017 00:00
Orbit: 776 x 779 km, 86.4° (Epoch: 26 June)

Date Brightness Start Highest point End Pass type
(mag) Time Alt. Az. Time Alt. Az. Time Alt. Az.
26 Jun 6.0 21:54:05 10° S 21:59:17 87° W 22:04:32 10° N visible
27 Jun 6.3 21:20:52 10° SSE 21:25:50 48° E 21:30:50 10° NNE visible
27 Jun 8.6 23:03:47 10° WSW 23:06:47 15° WNW 23:09:47 10° NW visible
28 Jun 7.8 22:28:31 10° SW 22:33:01 29° W 22:37:33 10° NNW visible
29 Jun 6.7 21:54:17 10° SSW 21:59:23 58° W 22:04:31 10° N visible
30 Jun 6.0 21:20:41 10° S 21:25:51 73° E 21:31:04 10° N visible
01 Jul 8.5 22:29:28 10° SW 22:33:13 20° W 22:37:00 10° NNW visible
02 Jul 7.5 21:54:42 10° SSW 21:59:31 38° W 22:04:22 10° NNW visible
03 Jul 6.3 21:20:44 10° S 21:25:55 76° W 21:31:09 10° N visible
04 Jul 8.9 22:31:03 10° WSW 22:33:29 13° WNW 22:35:55 10° NW visible
05 Jul 8.2 21:55:25 10° SW 21:59:41 26° W 22:04:01 10° NNW visible
